Regional Weather Roundup
Issued by NWS

Current Version | Previous Version | Text Only | Print | Product List | Glossary Off
Versions: 1 2 3 4 5 6 7 8 9 10 11 12 13 14 15 16 17 18 19 20 21 22 23 24 25 26 27 28 29 30 31 32 33 34 35 36 37 38 39 40 41 42 43 44 45 46 47 48 49 50

000
ASUS44 KJAN 301110
RWRMS

MISSISSIPPI HOURLY WEATHER ROUNDUP
NATIONAL WEATHER SERVICE JACKSON MS
600 AM CDT WED JUL 30 2014

NOTE: "FAIR: INDICATES FEW OR NO CLOUDS BELOW 12,000 FEET WITH NO
SIGNIFICANT WEATHER AND/OR OBSTRUCTIONS TO VISIBILITY.

MSZ001>002-007>008-010>013-018>021-025>028-034>036-301200-
NORTHWEST MISSISSIPPI

CITY           SKY/WX    TMP DP  RH WIND       PRES   REMARKS
CLARKSDALE     FAIR      59  59 100 MISG      30.12R
CLEVELAND      FAIR      61  61 100 CALM      30.10R
GREENWOOD      CLEAR     59  57  93 NE3       30.10R
GREENVILLE     PTCLDY    61  59  93 CALM      30.09R
GRENADA        FAIR      55  54  94 CALM      30.11R
OLIVE BRANCH   CLEAR     61  61 100 CALM      30.11S
OXFORD         FAIR      55  54  94 CALM      30.12S
TUNICA         MOSUNNY   61  59  94 CALM      30.11S
$$

MSZ003>006-009-014>017-022>024-029>033-037>039-301200-
NORTHEAST MISSISSIPPI

CITY           SKY/WX    TMP DP  RH WIND       PRES   REMARKS
BELMONT        FAIR      55  54  97 CALM      30.11R
COLUMBUS AFB   CLEAR     59  58  97 NW1       30.10R
CORINTH        FAIR      55  54  94 CALM      30.11R FOG
GOLDN TRIANGLE PTCLDY    55  52  88 CALM      30.10R
STARKVILLE     FAIR      54  54 100 CALM      30.10R FOG
TUPELO         PTCLDY    59  55  87 CALM      30.10R
$$

MSZ040-058-301200-
CENTRAL MISSISSIPPI

CITY           SKY/WX    TMP DP  RH WIND       PRES   REMARKS
JACKSON INTL   CLEAR     61  58  90 CALM      30.09R
JACKSON HAWKNS CLEAR     61  57  87 CALM      30.10R
MERIDIAN KEY   PTCLDY    56  54  93 CALM      30.09R
MERIDIAN NAS   PTCLDY    56  54  93 CALM      30.09R
RAYMOND        FAIR      59  54  82 CALM      30.10R HAZE
VICKSBURG      CLEAR     59  57  93 CALM      30.09S
$$

MSZ059>079-301200-
SOUTH MISSISSIPPI

CITY           SKY/WX    TMP DP  RH WIND       PRES   REMARKS
BROOKHAVEN     FAIR      61  61 100 CALM      30.11R
COLUMBIA       FAIR      57  57 100 CALM      30.07R
HATTIESBURG    CLEAR     63  60  90 CALM      30.09R
MCCOMB         CLEAR     65  59  81 N5        30.08R HAZE
NATCHEZ        CLEAR     64  59  82 E3        30.09R
PINE BELT      CLEAR     61  55  82 N6        30.09R
$$

MSZ080>082-301200-
COASTAL MISSISSIPPI

CITY           SKY/WX    TMP DP  RH WIND       PRES   REMARKS
BILOXI         CLEAR     70  61  74 NE6       30.05R
PASCAGOULA     CLEAR     66  61  84 N5        30.04R
GULFPORT       CLEAR     71  61  70 NE3       30.05R
$$


USA.gov is the U.S. government's official web portal to all federal, state and local government web resources and services.